Location: Newark
(41.0400°S, 62.7845°W)
Time: 14:18:44
(UTC+00:00)

N. Korean satellite - Pass Details

Date: 29 October 2021
Orbit: 447 x 495 km, 97.3° (Epoch: 30 November)

Event Time Altitude Azimuth Distance (km) Brightness Sun altitude
Rises 08:15:28 0° 27° (NNE) 2,486 10.2 -8.9°
Reaches altitude 10° 08:17:34 10° 34° (NNE) 1,613 9.3 -8.5°
Maximum altitude 08:20:52 43° 106° (ESE) 661 7.9 -8.0°
Drops below altitude 10° 08:24:10 10° 178° (S) 1,620 9.6 -7.4°
Sets 08:26:17 0° 185° (S) 2,499 10.5 -7.0°
